TimeEDT,TemperatureF,Dew PointF,Humidity,Sea Level PressureIn,VisibilityMPH,Wind Direction,Wind SpeedMPH,Gust SpeedMPH,PrecipitationIn,Events,Conditions,WindDirDegrees,DateUTC
12:53 AM,66.0,64.0,93,30.07,10.0,Calm,Calm,-,N/A,,Mostly Cloudy,0,2013-05-20 04:53:00
1:02 AM,68.0,64.4,88,30.10,10.0,Calm,Calm,-,N/A,,Mostly Cloudy,0,2013-05-20 05:02:00
1:09 AM,68.0,64.4,88,30.10,10.0,Calm,Calm,-,N/A,,Overcast,0,2013-05-20 05:09:00
1:24 AM,68.0,64.4,88,30.09,10.0,Calm,Calm,-,N/A,,Mostly Cloudy,0,2013-05-20 05:24:00
1:53 AM,68.0,64.9,90,30.06,10.0,Calm,Calm,-,N/A,,Mostly Cloudy,0,2013-05-20 05:53:00
2:01 AM,68.0,64.4,88,30.09,10.0,Calm,Calm,-,N/A,,Overcast,0,2013-05-20 06:01:00
2:09 AM,68.0,64.4,88,30.10,10.0,Calm,Calm,-,N/A,,Overcast,0,2013-05-20 06:09:00
2:21 AM,68.0,64.4,88,30.09,10.0,Calm,Calm,-,N/A,,Overcast,0,2013-05-20 06:21:00
2:53 AM,68.0,64.9,90,30.07,10.0,Calm,Calm,-,N/A,,Mostly Cloudy,0,2013-05-20 06:53:00
3:43 AM,66.2,64.4,94,30.09,10.0,Calm,Calm,-,N/A,,Mostly Cloudy,0,2013-05-20 07:43:00
3:53 AM,66.9,64.9,93,30.07,10.0,Calm,Calm,-,N/A,,Mostly Cloudy,0,2013-05-20 07:53:00
4:01 AM,66.2,64.4,94,30.09,10.0,Calm,Calm,-,N/A,,Scattered Clouds,0,2013-05-20 08:01:00
4:44 AM,66.2,64.4,94,30.09,2.5,Calm,Calm,-,N/A,,Scattered Clouds,0,2013-05-20 08:44:00
4:47 AM,66.2,64.4,94,30.09,1.0,Calm,Calm,-,N/A,,Mist,0,2013-05-20 08:47:00
4:53 AM,64.9,64.0,97,30.06,0.2,Calm,Calm,-,N/A,Fog,Fog,0,2013-05-20 08:53:00
5:05 AM,64.4,64.4,100,30.08,1.0,Calm,Calm,-,N/A,,Mist,0,2013-05-20 09:05:00
5:09 AM,66.2,64.4,94,30.08,3.0,Calm,Calm,-,N/A,,Overcast,0,2013-05-20 09:09:00
5:21 AM,64.4,64.4,100,30.08,2.5,Calm,Calm,-,N/A,,Overcast,0,2013-05-20 09:21:00
5:35 AM,66.2,64.4,94,30.08,1.0,Calm,Calm,-,N/A,,Mist,0,2013-05-20 09:35:00
5:42 AM,64.4,64.4,100,30.08,0.8,Calm,Calm,-,N/A,,Mist,0,2013-05-20 09:42:00
5:53 AM,64.9,64.0,97,30.06,0.5,Calm,Calm,-,N/A,Fog,Fog,0,2013-05-20 09:53:00
6:34 AM,64.4,64.4,100,30.08,0.2,Calm,Calm,-,N/A,Fog,Fog,0,2013-05-20 10:34:00
6:43 AM,64.4,64.4,100,30.08,0.2,Calm,Calm,-,N/A,Fog,Fog,0,2013-05-20 10:43:00
7:28 AM,64.4,64.4,100,30.12,0.2,Calm,Calm,-,N/A,Fog,Fog,0,2013-05-20 11:28:00
8:13 AM,66.2,64.4,94,30.12,0.2,SSE,3.5,-,N/A,Fog,Fog,150,2013-05-20 12:13:00
8:21 AM,66.2,64.4,94,30.12,0.5,South,4.6,-,N/A,Fog,Fog,190,2013-05-20 12:21:00
8:49 AM,66.2,64.4,94,30.13,1.5,Calm,Calm,-,N/A,,Overcast,0,2013-05-20 12:49:00
8:53 AM,66.0,64.9,96,30.11,1.0,Calm,Calm,-,N/A,,Overcast,0,2013-05-20 12:53:00
9:03 AM,66.2,64.4,94,30.13,0.5,South,3.5,-,N/A,Fog,Fog,170,2013-05-20 13:03:00
9:21 AM,66.2,64.4,94,30.14,1.5,Calm,Calm,-,N/A,,Overcast,0,2013-05-20 13:21:00
9:28 AM,66.2,64.4,94,30.14,2.5,Calm,Calm,-,N/A,,Overcast,0,2013-05-20 13:28:00
9:37 AM,66.2,64.4,94,30.14,4.0,South,4.6,-,N/A,,Overcast,180,2013-05-20 13:37:00
10:16 AM,66.2,64.4,94,30.14,10.0,Calm,Calm,-,N/A,,Overcast,0,2013-05-20 14:16:00
10:53 AM,71.1,64.0,78,30.12,10.0,Calm,Calm,-,N/A,,Overcast,0,2013-05-20 14:53:00
11:12 AM,73.4,64.4,73,30.15,10.0,Calm,Calm,-,N/A,,Overcast,0,2013-05-20 15:12:00
11:39 AM,75.2,64.4,69,30.14,10.0,Calm,Calm,-,N/A,,Partly Cloudy,0,2013-05-20 15:39:00
11:53 AM,75.0,64.0,69,30.12,10.0,Calm,Calm,-,N/A,,Clear,0,2013-05-20 15:53:00
12:53 PM,77.0,64.0,64,30.10,10.0,ESE,5.8,-,N/A,,Mostly Cloudy,120,2013-05-20 16:53:00
1:39 PM,80.6,64.4,58,30.12,10.0,NE,8.1,-,N/A,,Mostly Cloudy,40,2013-05-20 17:39:00
1:53 PM,78.1,64.0,62,30.09,10.0,ESE,5.8,-,N/A,,Mostly Cloudy,120,2013-05-20 17:53:00
2:53 PM,82.0,64.0,54,30.06,10.0,SSW,5.8,-,N/A,,Partly Cloudy,200,2013-05-20 18:53:00
3:53 PM,82.0,63.0,52,30.05,10.0,Variable,3.5,-,N/A,,Partly Cloudy,0,2013-05-20 19:53:00
4:53 PM,82.9,64.9,54,30.05,10.0,SSW,4.6,-,N/A,,Partly Cloudy,210,2013-05-20 20:53:00
5:53 PM,82.0,64.0,54,30.04,10.0,SW,8.1,-,N/A,,Scattered Clouds,230,2013-05-20 21:53:00
6:53 PM,81.0,63.0,54,30.03,10.0,SSW,5.8,-,N/A,,Partly Cloudy,210,2013-05-20 22:53:00
7:53 PM,79.0,64.0,60,30.02,10.0,South,4.6,-,N/A,,Clear,190,2013-05-20 23:53:00
8:53 PM,75.9,66.0,71,30.03,10.0,WSW,3.5,-,N/A,,Clear,250,2013-05-21 00:53:00
10:53 PM,75.0,66.0,73,30.05,10.0,Calm,Calm,-,N/A,,Clear,0,2013-05-21 02:53:00
11:53 PM,73.0,66.0,79,30.04,10.0,Calm,Calm,-,N/A,,Clear,0,2013-05-21 03:53:00